Regional Weather Roundup
Issued by NWS

Home | Current Version | Previous Version | Text Only | Print | Product List | Glossary On
Versions: 1 2 3 4 5 6 7 8 9 10 11 12 13 14 15 16 17 18 19 20 21 22 23 24 25 26 27 28 29 30 31 32 33 34 35 36 37 38 39 40 41 42 43 44 45 46 47 48 49 50
000
ASUS43 KDMX 201907
RWRIA

WEATHER ROUNDUP FOR IOWA
NATIONAL WEATHER SERVICE DES MOINES IA
200 PM CDT WED AUG 20 2014

NOTE: "FAIR" INDICATES FEW OR NO CLOUDS BELOW 12,000 FEET WITH NO
SIGNIFICANT WEATHER AND/OR OBSTRUCTIONS TO VISIBILITY.

* - THESE STATIONS ARE NOT NWS STATIONS...THUS NOT UNDER NWS
QUALITY CONTROL.  THEY ALSO DO NOT REPORT WEATHER SUCH
AS PRECIPITATION OR FOG.

IAZ001>003-012>014-020>022-031>034-043>046-202000-
   NORTHWEST IOWA

CITY           SKY/WX    TMP DP  RH WIND       PRES   REMARKS
CARROLL *      MOSUNNY   73  70  88 SE5       29.87S
CHEROKEE *     CLOUDY    72  70  94 S10       29.80F
DENISON *      SUNNY     75  68  78 SE8G15    29.83S
LE MARS *      MOSUNNY   72  70  94 S10G18    29.81R
ORANGE CITY *  MOSUNNY   77  70  78 S15       29.81S
SHELDON *      SUNNY     75  70  83 SE12G18   29.80F
SIOUX CITY     LGT RAIN  73  70  90 SE8G22    29.80F
SPENCER        CLOUDY    76  69  79 S9        29.84F
STORM LAKE *   SUNNY     70  70 100 S13G20    29.83F
$$

IAZ055>058-069>071-079>083-090>094-202000-
   SOUTHWEST IOWA

CITY           SKY/WX    TMP DP  RH WIND       PRES   REMARKS
ATLANTIC *     SUNNY     82  70  65 S14       29.85F HX  86
AUDUBON *      SUNNY     79  72  78 S7        29.87F HX  82
CLARINDA *     SUNNY     84  73  70 VRB7G18   29.88S HX  91
COUNCIL BLFS * SUNNY     84  75  74 S18       29.83F HX  92
CRESTON *      SUNNY     81  70  69 S14       29.89F HX  84
HARLAN  *      SUNNY     81  72  74 S15       29.88F HX  84
LAMONI         MOSUNNY   83  70  64 SE13      29.91S HX  87
RED OAK *      SUNNY     84  73  70 SE16      29.85F HX  91
SHENANDOAH *   SUNNY     86  75  70 SE12G20   29.85F HX  95
$$

IAZ047>049-059>061-072>074-084-202000-
   CENTRAL IOWA

CITY           SKY/WX    TMP DP  RH WIND       PRES   REMARKS
AMES           CLOUDY    73  67  81 CALM      29.89R
ANKENY *       CLOUDY    73  70  88 S7        29.87S
CHARITON *     SUNNY     79  70  73 S13       29.89F HX  81
DES MOINES     CLOUDY    78  69  73 S9        29.87R HX  80
GRINNELL*      LGT RAIN  72  68  88 S10       29.88F
KNOXVILLE *    SUNNY     79  68  69 S12       29.87S HX  81
MARSHALLTOWN   CLOUDY    71  68  90 W8        29.90R
PELLA *        CLOUDY    75  70  83 S6        29.89S
PERRY *          N/A     73  68  83 S6        29.87S
$$

IAZ004>006-015-016-023>025-035-036-202000-
   NORTH CENTRAL IOWA

CITY           SKY/WX    TMP DP  RH WIND       PRES   REMARKS
ALGONA *       SUNNY     75  70  83 S6        29.86F
CLARION *      MOSUNNY   72  70  94 SW5       29.88S
ESTHERVILLE    CLOUDY    74  69  85 SE7       29.84F
FORT DODGE *   CLOUDY    72  68  88 S6        29.87S
MASON CITY     CLOUDY    75  67  76 S9        29.90R
FOREST CITY *  MOSUNNY   73  68  83 S5        29.88R
IOWA FALLS *   LGT RAIN  72  68  88 S5        29.88S
$$

IAZ007>011-017>019-026>030-037>042-050>054-066-202000-
   NORTHEAST IOWA

CITY           SKY/WX    TMP DP  RH WIND       PRES   REMARKS
CEDAR RAPIDS   CLOUDY    74  68  81 E3        29.84F
CHARLES CITY * SUNNY     79  70  73 SW6       29.87S HX  81
CLINTON *      CLOUDY    79  68  69 CALM      29.90F HX  81
DECORAH *      SUNNY     81  68  65 VRB5      29.87S HX  83
DUBUQUE        PTSUNNY   80  66  62 MISG      29.88F HX  82
MONTICELLO *   SUNNY     79  66  65 CALM      29.86S HX  81
OELWEIN *      SUNNY     79  68  69 S7        29.87S HX  81
WATERLOO       CLOUDY    76  67  73 CALM      29.85R
$$

IAZ064-065-067-068-078-202000-
   EAST CENTRAL IOWA

CITY           SKY/WX    TMP DP  RH WIND       PRES   REMARKS
DAVENPORT      CLOUDY    79  67  66 SE7       29.87F HX  81
IOWA CITY      CLOUDY    75  70  84 S10       29.87S
MT. PLEASANT * CLOUDY    73  70  88 S12       29.91R
MUSCATINE *    SUNNY     77  70  78 S10       29.88S
QUAD CITIES    LGT RAIN  77  70  79 SE7       29.87F
$$

IAZ062-063-075>077-085>089-095>099-202000-
   SOUTHEAST IOWA

CITY           SKY/WX    TMP DP  RH WIND       PRES   REMARKS
BURLINGTON     CLOUDY    74  70  87 S14       29.91F
FAIRFIELD *    SUNNY     73  68  83 S10G17    29.90R
FORT MADISON * SUNNY     75  72  88 S10       29.92F
KEOKUK *       SUNNY     75  70  83 S7G14     29.92F
OSKALOOSA *      N/A     73  70  88 S10       29.89R
CENTERVILLE *  SUNNY     81  72  74 S8        29.93S HX  84
OTTUMWA        CLOUDY    76  69  79 S10       29.87F
WASHINGTON *   SUNNY     72  70  94 S6        29.89R
$$

ABBREVIATIONS USED IN REMARKS
   TC - TEMPERATURES IN CELSIUS
  WCI - WIND CHILL INDEX
   HX - HEAT INDEX
  VSB - VISIBILITY
$$




USA.gov is the U.S. government's official web portal to all federal, state and local government web resources and services.